Time,TemperatureF,DewpointF,PressureIn,WindDirection,WindDirectionDegrees,WindSpeedMPH,WindSpeedGustMPH,Humidity,HourlyPrecipIn,Conditions,Clouds,dailyrainin,SoftwareType,DateUTC
2013-02-23 00:12:00,25.2,22.0,30.20,SSE,154,6.0,15.0,89,0.00,,,0.00,weatherlink.com 1.10,2013-02-23 05:12:00,
2013-02-23 00:27:00,25.6,23.0,30.19,South,171,6.0,13.0,90,0.00,,,0.00,weatherlink.com 1.10,2013-02-23 05:27:00,
2013-02-23 00:42:00,25.7,24.0,30.18,SSW,192,7.0,16.0,91,0.00,,,0.00,weatherlink.com 1.10,2013-02-23 05:42:00,
2013-02-23 00:57:00,25.9,23.0,30.18,South,189,3.0,13.0,90,0.00,,,0.00,weatherlink.com 1.10,2013-02-23 05:57:00,
2013-02-23 01:12:00,26.0,24.0,30.18,SSE,159,8.0,14.0,90,0.00,,,0.00,weatherlink.com 1.10,2013-02-23 06:12:00,
2013-02-23 01:27:00,25.9,24.0,30.17,South,178,18.0,18.0,92,0.00,,,0.00,weatherlink.com 1.10,2013-02-23 06:27:00,
2013-02-23 01:42:00,26.1,24.0,30.17,SSW,203,7.0,19.0,92,0.00,,,0.00,weatherlink.com 1.10,2013-02-23 06:42:00,
2013-02-23 01:57:00,26.1,24.0,30.17,South,177,17.0,21.0,92,0.00,,,0.00,weatherlink.com 1.10,2013-02-23 06:57:00,
2013-02-23 02:12:00,26.1,24.0,30.16,SSE,159,4.0,17.0,92,0.00,,,0.00,weatherlink.com 1.10,2013-02-23 07:12:00,
2013-02-23 02:27:00,26.2,24.0,30.16,SSW,198,7.0,15.0,92,0.00,,,0.00,weatherlink.com 1.10,2013-02-23 07:27:00,
2013-02-23 02:42:00,26.1,24.0,30.15,SSW,198,10.0,14.0,93,0.00,,,0.00,weatherlink.com 1.10,2013-02-23 07:42:00,
2013-02-23 02:57:00,26.3,24.0,30.15,South,184,3.0,19.0,92,0.00,,,0.00,weatherlink.com 1.10,2013-02-23 07:57:00,
2013-02-23 03:12:00,26.2,25.0,30.13,SE,134,2.0,17.0,93,0.00,,,0.00,weatherlink.com 1.10,2013-02-23 08:12:00,
2013-02-23 03:27:00,26.3,25.0,30.13,NNW,341,3.0,14.0,93,0.00,,,0.00,weatherlink.com 1.10,2013-02-23 08:27:00,
2013-02-23 03:42:00,26.7,25.0,30.13,SSW,198,3.0,12.0,93,0.00,,,0.00,weatherlink.com 1.10,2013-02-23 08:42:00,
2013-02-23 03:58:00,26.9,25.0,30.12,SE,133,5.0,14.0,92,0.00,,,0.00,weatherlink.com 1.10,2013-02-23 08:58:00,
2013-02-23 04:13:00,27.2,25.0,30.12,ESE,113,4.0,9.0,92,0.00,,,0.00,weatherlink.com 1.10,2013-02-23 09:13:00,
2013-02-23 04:28:00,27.4,25.0,30.12,South,173,13.0,15.0,92,0.00,,,0.00,weatherlink.com 1.10,2013-02-23 09:28:00,
2013-02-23 04:43:00,27.3,25.0,30.11,South,170,2.0,13.0,91,0.00,,,0.00,weatherlink.com 1.10,2013-02-23 09:43:00,
2013-02-23 04:58:00,27.4,25.0,30.11,SSE,155,2.0,13.0,91,0.00,,,0.00,weatherlink.com 1.10,2013-02-23 09:58:00,
2013-02-23 05:13:00,27.9,25.0,30.11,South,182,4.0,15.0,90,0.00,,,0.00,weatherlink.com 1.10,2013-02-23 10:13:00,
2013-02-23 05:28:00,28.0,26.0,30.11,SE,136,3.0,11.0,90,0.00,,,0.00,weatherlink.com 1.10,2013-02-23 10:28:00,
2013-02-23 05:43:00,28.3,26.0,30.10,ESE,119,3.0,14.0,89,0.00,,,0.00,weatherlink.com 1.10,2013-02-23 10:43:00,
2013-02-23 05:58:00,28.4,26.0,30.10,SW,219,8.0,12.0,90,0.00,,,0.00,weatherlink.com 1.10,2013-02-23 10:58:00,
2013-02-23 06:13:00,28.4,26.0,30.11,South,177,5.0,8.0,91,0.00,,,0.00,weatherlink.com 1.10,2013-02-23 11:13:00,
2013-02-23 06:28:00,28.2,26.0,30.09,South,191,3.0,12.0,92,0.00,,,0.00,weatherlink.com 1.10,2013-02-23 11:28:00,
2013-02-23 06:43:00,28.1,26.0,30.08,South,177,4.0,7.0,92,0.00,,,0.00,weatherlink.com 1.10,2013-02-23 11:43:00,
2013-02-23 06:58:00,28.2,27.0,30.08,SSW,192,2.0,7.0,93,0.00,,,0.00,weatherlink.com 1.10,2013-02-23 11:58:00,
2013-02-23 07:13:00,28.3,27.0,30.08,ESE,117,2.0,7.0,93,0.00,,,0.00,weatherlink.com 1.10,2013-02-23 12:13:00,
2013-02-23 07:28:00,28.4,27.0,30.08,SSW,200,7.0,12.0,94,0.00,,,0.00,weatherlink.com 1.10,2013-02-23 12:28:00,
2013-02-23 07:43:00,28.4,27.0,30.07,SSE,148,6.0,15.0,95,0.00,,,0.00,weatherlink.com 1.10,2013-02-23 12:43:00,
2013-02-23 07:58:00,28.5,27.0,30.07,SSE,157,7.0,17.0,95,0.00,,,0.00,weatherlink.com 1.10,2013-02-23 12:58:00,
2013-02-23 08:13:00,28.6,28.0,30.07,SSE,152,9.0,11.0,96,0.00,,,0.00,weatherlink.com 1.10,2013-02-23 13:13:00,
2013-02-23 08:28:00,28.8,28.0,30.07,SSW,200,2.0,10.0,96,0.00,,,0.00,weatherlink.com 1.10,2013-02-23 13:28:00,
2013-02-23 08:43:00,29.5,29.0,30.06,South,186,5.0,8.0,96,0.00,,,0.00,weatherlink.com 1.10,2013-02-23 13:43:00,
2013-02-23 08:58:00,29.9,29.0,30.07,WSW,238,2.0,6.0,96,0.00,,,0.00,weatherlink.com 1.10,2013-02-23 13:58:00,
2013-02-23 09:13:00,29.8,29.0,30.06,South,181,11.0,11.0,95,0.00,,,0.00,weatherlink.com 1.10,2013-02-23 14:13:00,
2013-02-23 09:28:00,29.4,28.0,30.06,South,186,9.0,10.0,95,0.00,,,0.00,weatherlink.com 1.10,2013-02-23 14:28:00,
2013-02-23 09:43:00,29.2,28.0,30.05,South,190,5.0,14.0,95,0.00,,,0.00,weatherlink.com 1.10,2013-02-23 14:43:00,
2013-02-23 09:58:00,29.3,28.0,30.05,South,175,7.0,13.0,95,0.00,,,0.00,weatherlink.com 1.10,2013-02-23 14:58:00,
2013-02-23 10:13:00,29.5,29.0,30.03,SSW,209,10.0,14.0,96,0.00,,,0.00,weatherlink.com 1.10,2013-02-23 15:13:00,
2013-02-23 10:28:00,29.6,29.0,30.02,South,171,9.0,17.0,96,0.00,,,0.00,weatherlink.com 1.10,2013-02-23 15:28:00,
2013-02-23 10:43:00,29.9,29.0,30.01,South,190,6.0,16.0,96,0.00,,,0.00,weatherlink.com 1.10,2013-02-23 15:43:00,
2013-02-23 10:58:00,30.2,29.0,30.01,South,190,5.0,17.0,96,0.00,,,0.00,weatherlink.com 1.10,2013-02-23 15:58:00,
2013-02-23 11:13:00,30.5,30.0,30.00,South,169,6.0,16.0,96,0.00,,,0.00,weatherlink.com 1.10,2013-02-23 16:13:00,
2013-02-23 11:28:00,30.7,30.0,30.00,SSE,168,3.0,12.0,96,0.00,,,0.00,weatherlink.com 1.10,2013-02-23 16:28:00,
2013-02-23 11:43:00,30.6,30.0,30.00,South,181,10.0,15.0,96,0.00,,,0.00,weatherlink.com 1.10,2013-02-23 16:43:00,
2013-02-23 11:58:00,30.9,30.0,29.99,SE,136,5.0,15.0,96,0.00,,,0.00,weatherlink.com 1.10,2013-02-23 16:58:00,
2013-02-23 12:13:00,31.2,30.0,29.98,South,169,5.0,14.0,96,0.00,,,0.00,weatherlink.com 1.10,2013-02-23 17:13:00,
2013-02-23 12:28:00,31.1,30.0,29.99,SE,146,6.0,18.0,96,0.00,,,0.00,weatherlink.com 1.10,2013-02-23 17:28:00,
2013-02-23 12:43:00,31.0,30.0,30.00,East,101,7.0,19.0,96,0.00,,,0.00,weatherlink.com 1.10,2013-02-23 17:43:00,
2013-02-23 12:58:00,31.1,30.0,30.00,SSW,198,4.0,16.0,96,0.00,,,0.00,weatherlink.com 1.10,2013-02-23 17:58:00,
2013-02-23 13:14:00,31.3,30.0,30.00,SSW,205,8.0,12.0,96,0.00,,,0.00,weatherlink.com 1.10,2013-02-23 18:14:00,
2013-02-23 13:29:00,31.4,30.0,29.98,South,186,6.0,9.0,96,0.00,,,0.00,weatherlink.com 1.10,2013-02-23 18:29:00,
2013-02-23 13:44:00,31.3,31.0,29.97,SSW,196,8.0,12.0,97,0.00,,,0.00,weatherlink.com 1.10,2013-02-23 18:44:00,
2013-02-23 13:59:00,31.5,31.0,29.96,South,188,6.0,10.0,97,0.00,,,0.00,weatherlink.com 1.10,2013-02-23 18:59:00,
2013-02-23 14:14:00,31.7,31.0,29.96,SSW,200,3.0,11.0,97,0.00,,,0.00,weatherlink.com 1.10,2013-02-23 19:14:00,
2013-02-23 14:29:00,31.7,31.0,29.96,South,182,4.0,12.0,97,0.00,,,0.00,weatherlink.com 1.10,2013-02-23 19:29:00,
2013-02-23 14:44:00,31.7,31.0,29.95,SSW,193,7.0,14.0,97,0.00,,,0.00,weatherlink.com 1.10,2013-02-23 19:44:00,
2013-02-23 14:59:00,31.7,31.0,29.95,SSW,210,7.0,10.0,97,0.00,,,0.00,weatherlink.com 1.10,2013-02-23 19:59:00,
2013-02-23 15:14:00,31.9,31.0,29.94,South,184,7.0,12.0,97,0.00,,,0.00,weatherlink.com 1.10,2013-02-23 20:14:00,
2013-02-23 15:29:00,32.0,31.0,29.94,SSW,201,5.0,11.0,97,0.00,,,0.00,weatherlink.com 1.10,2013-02-23 20:29:00,
2013-02-23 15:44:00,32.0,31.0,29.93,SSW,207,7.0,13.0,97,0.00,,,0.00,weatherlink.com 1.10,2013-02-23 20:44:00,
2013-02-23 15:59:00,31.9,31.0,29.92,South,182,9.0,16.0,97,0.00,,,0.00,weatherlink.com 1.10,2013-02-23 20:59:00,
2013-02-23 16:14:00,32.0,31.0,29.92,SSW,198,8.0,13.0,97,0.00,,,0.00,weatherlink.com 1.10,2013-02-23 21:14:00,
2013-02-23 16:29:00,32.0,31.0,29.91,SSE,165,6.0,18.0,97,0.00,,,0.00,weatherlink.com 1.10,2013-02-23 21:29:00,
2013-02-23 16:44:00,31.9,31.0,29.91,SSW,196,4.0,14.0,97,0.00,,,0.00,weatherlink.com 1.10,2013-02-23 21:44:00,
2013-02-23 16:59:00,31.7,31.0,29.91,SSW,193,6.0,13.0,97,0.00,,,0.00,weatherlink.com 1.10,2013-02-23 21:59:00,
2013-02-23 17:14:00,31.5,31.0,29.90,South,184,7.0,11.0,97,0.00,,,0.00,weatherlink.com 1.10,2013-02-23 22:14:00,
2013-02-23 17:29:00,31.5,31.0,29.91,South,170,7.0,13.0,98,0.00,,,0.00,weatherlink.com 1.10,2013-02-23 22:29:00,
2013-02-23 17:44:00,31.5,31.0,29.90,South,173,4.0,13.0,98,0.00,,,0.00,weatherlink.com 1.10,2013-02-23 22:44:00,
2013-02-23 17:59:00,31.3,31.0,29.90,SSE,158,2.0,10.0,98,0.00,,,0.00,weatherlink.com 1.10,2013-02-23 22:59:00,
2013-02-23 18:14:00,31.2,31.0,29.89,SE,135,4.0,6.0,98,0.00,,,0.00,weatherlink.com 1.10,2013-02-23 23:14:00,
2013-02-23 18:29:00,31.2,31.0,29.90,ESE,109,2.0,4.0,98,0.00,,,0.00,weatherlink.com 1.10,2013-02-23 23:29:00,
2013-02-23 18:44:00,31.2,31.0,29.90,SSE,159,3.0,6.0,98,0.00,,,0.00,weatherlink.com 1.10,2013-02-23 23:44:00,
2013-02-23 18:59:00,31.3,31.0,29.89,South,171,2.0,4.0,98,0.00,,,0.00,weatherlink.com 1.10,2013-02-23 23:59:00,
2013-02-23 19:14:00,31.4,31.0,29.89,South,190,2.0,7.0,98,0.00,,,0.00,weatherlink.com 1.10,2013-02-24 00:14:00,
2013-02-23 19:29:00,31.3,31.0,29.88,South,178,0.0,5.0,98,0.00,,,0.00,weatherlink.com 1.10,2013-02-24 00:29:00,
2013-02-23 19:44:00,31.2,31.0,29.88,SE,144,2.0,5.0,98,0.00,,,0.00,weatherlink.com 1.10,2013-02-24 00:44:00,
2013-02-23 19:59:00,31.1,31.0,29.88,South,182,3.0,8.0,98,0.00,,,0.00,weatherlink.com 1.10,2013-02-24 00:59:00,
2013-02-23 20:14:00,31.2,31.0,29.88,SSW,198,7.0,7.0,98,0.00,,,0.00,weatherlink.com 1.10,2013-02-24 01:14:00,
2013-02-23 20:29:00,31.3,31.0,29.88,South,184,4.0,7.0,98,0.00,,,0.00,weatherlink.com 1.10,2013-02-24 01:29:00,
2013-02-23 20:44:00,31.4,31.0,29.88,SSE,153,3.0,7.0,98,0.00,,,0.00,weatherlink.com 1.10,2013-02-24 01:44:00,
2013-02-23 20:59:00,31.3,31.0,29.88,South,186,4.0,7.0,98,0.00,,,0.00,weatherlink.com 1.10,2013-02-24 01:59:00,
2013-02-23 21:14:00,31.2,31.0,29.87,South,185,3.0,6.0,98,0.00,,,0.00,weatherlink.com 1.10,2013-02-24 02:14:00,
2013-02-23 21:29:00,31.2,31.0,29.86,South,190,4.0,9.0,98,0.00,,,0.00,weatherlink.com 1.10,2013-02-24 02:29:00,
2013-02-23 21:44:00,31.3,31.0,29.85,South,179,4.0,6.0,98,0.00,,,0.00,weatherlink.com 1.10,2013-02-24 02:44:00,
2013-02-23 21:59:00,31.3,31.0,29.85,SSE,166,2.0,5.0,98,0.00,,,0.00,weatherlink.com 1.10,2013-02-24 02:59:00,
2013-02-23 22:14:00,31.3,31.0,29.84,South,175,2.0,5.0,98,0.00,,,0.00,weatherlink.com 1.10,2013-02-24 03:14:00,
2013-02-23 22:29:00,31.3,31.0,29.84,SSW,194,2.0,4.0,98,0.00,,,0.00,weatherlink.com 1.10,2013-02-24 03:29:00,
2013-02-23 22:44:00,31.5,31.0,29.84,South,191,1.0,7.0,98,0.00,,,0.00,weatherlink.com 1.10,2013-02-24 03:44:00,
2013-02-23 22:59:00,31.7,31.0,29.83,SSW,192,3.0,5.0,98,0.00,,,0.00,weatherlink.com 1.10,2013-02-24 03:59:00,
2013-02-23 23:14:00,31.8,31.0,29.82,SSW,206,3.0,6.0,98,0.00,,,0.00,weatherlink.com 1.10,2013-02-24 04:14:00,
2013-02-23 23:29:00,31.9,31.0,29.82,SW,231,4.0,6.0,98,0.00,,,0.00,weatherlink.com 1.10,2013-02-24 04:29:00,
2013-02-23 23:44:00,31.9,31.0,29.82,South,178,2.0,5.0,98,0.00,,,0.00,weatherlink.com 1.10,2013-02-24 04:44:00,
2013-02-23 23:59:00,31.9,31.0,29.81,South,184,1.0,3.0,98,0.00,,,0.00,weatherlink.com 1.10,2013-02-24 04:59:00,